www.pogodaiklimat.ru

Погода и климат >> Архив погоды >> Индия >> Chandrapur


ПОГОДА в Chandrapur

  • Прогноз погоды в Chandrapur
  • Монитор погоды в Chandrapur
  • Климат города

АРХИВ ПОГОДЫ в Chandrapur

Время (UTC), дата Ветер
(напр.,м/с)
 
Видим.   Явления Облачность Т
(С)
Тd
(С)
f
(%)
Тe
(С)
Тes
(С)
Комфортность P
(гПа)
Po
(гПа)
Тmin
(С)
Tmax
(С)
R
(мм)
R24
(мм)
S
(см)
03 19.05 ЮЗ 1 4000 м ясно +37.4 +20.6 38 +44 +54 опасность
перегрева
1004.0 1004.0 +31.2
06 19.05 Ю 1 4000 м ясно +43.8 +12.7 16 +43 +68 опасность
перегрева
1001.3 1001.0
09 19.05 Ю 1 4000 м ясно +45.6 +10.5 13 +44 +63 опасность
перегрева
1000.0 1000.0
12 19.05 Ю 1 4000 м ясно +44.8 +14.5 17 +45 +47 опасность
перегрева
998.1 998.0 +47.8
03 20.05 Ю 2 4000 м ясно +35.8 +21.4 43 +43 +52 опасность
перегрева
1003.3 1003.0 +32.2
06 20.05 Ю 1 4000 м ясно +41.4 +17.4 25 +44 +69 опасность
перегрева
1003.9 1004.0
09 20.05 Ю 1 4000 м ясно +45.4 +13.5 16 +46 +64 опасность
перегрева
998.9 999.0
12 20.05 Ю 2 4000 м ясно +44.4 +17.6 22 +47 +49 опасность
перегрева
999.2 999.0 +47.4
03 21.05 Ю 2 4000 м ясно +34.0 +20.6 46 +41 +50 опасность
перегрева
1006.0 1006.0 +32.8
06 21.05 ЮВ 1 4000 м ясно +38.6 +21.8 38 +46 +71 опасность
перегрева
1004.7 1005.0
09 21.05 ЮВ 1 4000 м ясно +42.6 +20.4 28 +48 +66 опасность
перегрева
1002.4 1002.0
12 21.05 ЮВ 2 4000 м ясно +41.0 +19.3 29 +46 +48 опасность
перегрева
1000.5 1001.0 +45.0
03 22.05 ЮЗ 2 4000 м ясно +34.0 +20.6 46 +41 +50 опасность
перегрева
1006.1 1006.0 +32.8 +45.0
06 22.05 В 1 4000 м ясно +39.6 +20.1 33 +45 +70 опасность
перегрева
1004.7 1005.0
09 22.05 СЗ 1 4000 м ясно +42.6 +20.0 28 +48 +67 опасность
перегрева
1001.6 1002.0
12 22.05 ЮВ 2 4000 м ясно +42.4 +19.7 27 +47 +49 опасность
перегрева
1001.4 1001.0 +45.5
03 23.05 ЮЗ 2 2000 м 10/8 600 м
[Sc diur, vesp As op]
+27.2 +21.2 70 +34 +35 очень
душно
1006.6 1007.0 +25.6 3
06 23.05 Ю 1 4000 м ясно +34.4 +21.1 46 +42 +67 опасность
перегрева
1005.2 1005.0
09 23.05 ЮВ 1 4000 м ясно +39.4 +20.2 33 +45 +64 опасность
перегрева
1002.7 1003.0
12 23.05 Ю 2 4000 м ясно +40.0 +19.5 31 +45 +47 опасность
перегрева
999.8 1000.0 +43.6
03 24.05 Ю 2 4000 м ясно +32.2 +20.5 50 +39 +48 очень
душно
1005.4 1005.0 +27.2 +43.6
09 24.05 З 1 4000 м ясно +43.0 +19.4 26 +47 +66 опасность
перегрева
999.7 1000.0
12 24.05 Ю 2 4000 м ясно +41.8 +20.5 30 +48 +50 опасность
перегрева
998.7 999.0 +45.7
03 25.05 ЮЗ 2 4000 м ясно +35.0 +23.6 52 +46 +55 опасность
перегрева
1003.2 1003.0 +31.6 +45.7
06 25.05 СВ 1 4000 м ясно +42.0 +17.4 24 +45 +70 опасность
перегрева
1001.9 1002.0
09 25.05 В 1 4000 м ясно +43.8 +19.3 25 +48 +67 опасность
перегрева
998.5 999.0
12 25.05 ЮВ 2 4000 м ясно +42.0 +21.9 32 +49 +51 опасность
перегрева
998.6 999.0 +46.3

 

Местоположение метеостанции Chandrapur (Maharashtra, Индия): широта 19.97 долгота 79.30 высота над уровнем моря 193 м.

В архиве по умолчанию представлена погода в Chandrapur за последнюю неделю. Архивные данные за месяц целиком и за предыдущие месяцы, начиная с января 2011 года, Вы можете получить, выбрав интересующий диапазон дат из раскрывающегося списка и нажав кнопку "Ввод!".


*Определитесь, кто Вы:
робот инопланетянин человек

Внимание! Время в таблицах - всемирное. Для получения местного времени необходимо прибавить поправку, которая в Chandrapur равна 5.5 ч.

Смотрите также архив погоды в соседних городах и на ближайших метеорологических станциях:

Погода в Adilabad (Telangana, Индия) (88 км)
Погода в Bramhapuri (Maharashtra, Индия) (91 км)
Погода в Wardha (Maharashtra, Индия) (108 км)
Погода в Nagpur (Maharashtra, Индия) (128 км)
Погода в Yeotmal (Maharashtra, Индия) (129 км)
Погода в Ramgundam (Telangana, Индия) (134 км)
Погода в Amravati (Maharashtra, Индия) (191 км)
Погода в Gondia (Maharashtra, Индия) (191 км)
Погода в Nizamabad (Telangana, Индия) (192 км)
Погода в Hanamkonda (Telangana, Индия) (219 км)

Пояснения к столбцам:

Ветер - указаны скорость ветра в м/с - средняя за 10 мин, порывы в срок и между сроками (в фигурных скобках) и направление, откуда дует ветер: С - северный, СВ - северо-восточный, В - восточный, ЮВ - юго-восточный, Ю - южный, ЮЗ - юго-западный, З - западный, СЗ - северо-западный.
Видимость - горизонтальная дальность видимости в метрах или километрах. При видимости от 1 до 10 км при отсутствии осадков обычно наблюдается дымка, при ухудшении видимости до 1 км и менее - туман. В сухую погоду видимость может ухудшаться дымом, пылью или мглою.
Явления - указаны атмосферные явления, наблюдавшиеся в срок или в последний час перед сроком; фигурными скобками обозначены явления, наблюдавшиеся между сроками (за 1-3 часа до срока); квадратными скобками обозначены град или гололедные отложения с указанием их диаметра в мм.
Облачность - указаны через наклонную черту общая и нижняя облачность в баллах и высота нижней границы облаков в метрах; квадратными скобками обозначены формы облаков: Ci - перистые, Cs - перисто-слоистые, Cc - перисто-кучевые, Ac - высококучевые, As - высокослоистые, Sc - слоисто-кучевые, Ns - слоисто-дождевые, Cu - кучевые, Cb - кучево-дождевые. Подробнее классификацию облаков см. в Атласе облаков (PDF).
T - Температура воздуха - температура, измеренная на высоте 2 м над землей.
Td - Температура точки росы - температура, при понижении до которой содержащийся в воздухе водяной пар достигнет насыщения.
f - Относительная влажность воздуха - влажноcть воздуха, измеренная на высоте 2 м над землей.
Te - Эффективная температура - температура, которую ощущает одетый по сезону человек в тени. Характеристика душности погоды. При расчете учитывается влияние влажности воздуха и скорости ветра на теплоощущения человека.
Tes - Эффективная температура на солнце - температура, которую ощущает человек, с поправкой на солнечный нагрев. Характеристика знойности погоды. Зависит от высоты солнца над горизонтом, облачности и скорости ветра. Ночью, в пасмурную погоду, а также при ветре 12 м/с и более поправка равна нулю.
P - Атмосферное давление - приведенное к уровню моря атмосферное давление.
Po - Атмосферное давление - измеренное на уровне метеостанции атмосферное давление.
Tmin - Минимальная температура - минимум температуры воздуха на высоте 2 м над землей.
Tmax - Максимальная температура - максимум температуры воздуха на высоте 2 м над землей.
R - Количество осадков - Количество выпавших осадков за период времени, мм. При наведении курсора мыши на число - период времени, за который выпало указанное количество осадков.
R24 - Количество осадков - Количество выпавших осадков за 24 часа, мм.
S - Снежный покров - Высота снежного покрова, см. При наведении курсора мыши на число - состояние снежного покрова и степень покрытия местности в баллах.